Home > Weather > Passau > Past weeks

Flag for Germany Past Weather in Passau, Bavaria, Germany — Yesterday and Last 2 Weeks

Now
60 °F

Cool.


Feels Like: 60 °F
Forecast: 50 / 78 °F
Wind: 1 mph from West

Location: Rohrbach

Current Time: May 27, 2016 at 12:39:50 AM

Latest Report: May 26, 2016 at 11:00 PM


Visibility: N/A

Pressure: 29.99 "Hg

Humidity: 78%

Dew Point: 53 °F

Location of PassauLocation

Past Weather in Passau — Graph

°F

Passau Temperature Yesterday

Maximum temperature yesterday: 72 °F (at 7:00 PM)
Minimum temperature yesterday: 49 °F (at 6:00 AM)
Average temperature yesterday: 60 °F

High & Low Weather Summary for the Past Weeks

 TemperatureHumidityPressure
High83 °F (May 22, 4:00 PM)100% (May 20, 6:00 AM)30.21 "Hg (May 20, 6:00 AM)
Low38 °F (May 16, 4:00 AM)25% (May 22, 4:00 PM)29.35 "Hg (May 12, 2:00 PM)
Average53 °F78%29.88 "Hg
* Reported May 11 11:00 PM — May 26 11:00 PM, Passau, Weather by CustomWeather, © 2016

Note: Actual official high and low records may vary slightly from our data, if they occured in-between our weather recording intervals... More about our weather records

Advertising

Passau Weather History for the Previous 24 Hours

Scroll right to see more
 ConditionsComfort  
Time TempWeatherWind HumidityBarometerVisibility
11:00 PM
Thu, May 26
60 °FCool.1 mph78%29.99 "HgN/A
10:00 PM64 °FMild.1 mph68%29.97 "HgN/A
9:00 PM65 °FMild.2 mph65%29.95 "HgN/A
8:00 PM71 °FMild.1 mph43%29.93 "HgN/A
7:00 PM72 °FMild.1 mph41%29.92 "HgN/A
6:00 PM72 °FMild.2 mph41%29.93 "HgN/A
5:00 PM72 °FMild.3 mph41%29.94 "HgN/A
4:00 PM72 °FMild.2 mph44%29.94 "HgN/A
3:00 PM71 °FMild.2 mph45%29.96 "HgN/A
2:00 PM70 °FMild.3 mph48%29.96 "HgN/A
1:00 PM66 °FMild.2 mph60%29.98 "HgN/A
12:00 PM65 °FMild.1 mph65%30.00 "HgN/A
11:00 AM61 °FCool.1 mph71%30.02 "HgN/A
10:00 AM57 °FCool.1 mph89%30.03 "HgN/A
9:00 AM53 °FCool.1 mph100%30.05 "HgN/A
8:00 AM51 °FCool.1 mph100%30.04 "HgN/A
7:00 AM49 °FCool.No wind100%30.04 "HgN/A
6:00 AM49 °FCool.No wind99%30.04 "HgN/A
5:00 AM49 °FCool.No wind100%30.02 "HgN/A
4:00 AM50 °FCool.No wind100%30.01 "HgN/A
3:00 AM50 °FCool.No wind97%30.01 "HgN/A
2:00 AM52 °FCool.1 mph97%30.00 "HgN/A
1:00 AM53 °FCool.1 mph95%30.00 "HgN/A
12:00 AM55 °FCool.1 mph92%29.99 "HgN/A
Weather by CustomWeather, © 2016

See weather overviewHow to use our weather pages